User: anonymous   Login
Location: Leo
(52.0556°N, 112.3605°W)
Time: 13:11:44
(UTC+00:00)
Language:

XW-2D - Orbit

View from above orbital plane
View from above orbital plane
View from above satellite
View from above satellite

Ground track
Ground track

The orbit data is extracted from the following two-line orbital elements,

1 40907U 15049J   23342.09769373  .00015942  00000-0  46126-3 0  9990
2 40907  97.4878 351.6117 0006729 257.0889 102.9602 15.35669859455104
Epoch (UTC): 08 December 2023 02:20:40
Eccentricity: 0.0006729
inclination: 97.4878°
perigee height: 454 km
apogee height: 463 km
right ascension of ascending node: 351.6117°
argument of perigee: 257.0889°
revolutions per day: 15.35669859
mean anomaly at epoch: 102.9602°
orbit number at epoch: 45510

The dashed part of the orbit path shows where the satellite is in the earth's shadow,  

DLR